GW5755 Weather Reports


time (UTC)temp
F
wind
direction
speed
knots
gust
knots
rain 1hr
in
rain 24hr
in
rain mn
in
humidity
%
barometer
mb
20260504150201 83 10 15.6 20.0 0.00 0.00 0.00 28 1010.2
20260504141130 83 320 13.0 15.6 0.00 0.00 0.00 31 1010.5
20260504140627 83 328 13.0 15.6 0.00 0.00 0.00 31 1010.6
20260504140122 83 314 9.6 11.3 0.00 0.00 0.00 32 1010.6
20260504130550 84 319 8.7 13.0 0.00 0.00 0.00 35 1010.9
20260504110438 83 305 7.8 9.6 0.00 0.00 0.00 31 1011.9
20260504100401 82 334 11.3 15.6 0.00 0.00 0.00 35 1012.7
20260504081754 80 340 13.9 18.2 0.00 0.00 0.00 41 1013.3
20260504081250 79 347 11.3 14.8 0.00 0.00 0.00 41 1013.3
20260504080747 79 345 13.0 14.8 0.00 0.00 0.00 43 1013.3
20260504080243 79 345 13.0 14.8 0.00 0.00 0.00 43 1013.2
20260504070211 78 346 20.9 23.5 0.00 0.00 0.00 45 1013.5
20260504060131 76 344 21.7 27.8 0.00 0.00 0.00 50 1013.1
20260504050600 74 356 18.2 25.2 0.00 0.00 0.00 56 1012.2
20260504045553 74 356 22.6 29.5 0.00 0.00 0.00 57 1012.4
20260504045043 74 348 20.0 27.8 0.00 0.00 0.00 57 1012.2
20260504044541 73 333 19.1 26.1 0.00 0.00 0.00 58 1012.4
20260504044038 73 346 22.6 26.1 0.00 0.00 0.00 58 1012.3
20260504043534 73 334 16.5 19.1 0.00 0.00 0.00 59 1012.4
20260504043032 73 9 20.0 25.2 0.00 0.00 0.00 60 1012.1
20260504042529 72 355 17.4 27.8 0.00 0.00 0.00 61 1012.2
20260504042026 72 353 23.5 28.7 0.00 0.00 0.00 61 1012.0
20260504041522 72 353 20.9 22.6 0.00 0.00 0.00 62 1012.0
20260504041018 72 346 15.6 25.2 0.00 0.00 0.00 62 1012.0
20260504040516 72 342 20.9 26.1 0.00 0.00 0.00 62 1012.0
20260504040012 72 347 20.9 28.7 0.00 0.00 0.00 63 1012.0
20260504035509 72 317 22.6 30.4 0.00 0.00 0.00 63 1011.8
20260504035005 72 343 14.8 20.0 0.00 0.00 0.00 63 1011.8
20260504034503 71 359 18.2 20.9 0.00 0.00 0.00 64 1011.7
20260504034000 71 338 17.4 23.5 0.00 0.00 0.00 64 1011.9
20260504033457 71 359 16.5 25.2 0.00 0.00 0.00 64 1011.7
20260504032955 72 338 20.0 25.2 0.00 0.00 0.00 63 1011.7
20260504032451 71 356 24.3 26.9 0.00 0.00 0.00 62 1011.5
20260504031948 72 333 18.2 26.1 0.00 0.00 0.00 64 1011.5
20260504031445 71 347 14.8 20.0 0.00 0.00 0.00 65 1011.2
20260504030942 71 354 20.0 21.7 0.00 0.00 0.00 66 1011.2
20260504030439 71 328 18.2 21.7 0.00 0.00 0.00 65 1011.5
20260504025934 71 344 17.4 23.5 0.00 0.00 0.00 65 1011.4
20260504025431 71 351 19.1 23.5 0.00 0.00 0.00 65 1011.4
20260504024929 71 346 16.5 21.7 0.00 0.00 0.00 65 1011.3
20260504024426 72 359 18.2 23.5 0.00 0.00 0.00 65 1011.3
20260504023923 72 352 21.7 26.9 0.00 0.00 0.00 64 1011.2
20260504023419 72 348 19.1 23.5 0.00 0.00 0.00 64 1011.5
20260504022915 72 351 21.7 26.1 0.00 0.00 0.00 64 1011.0
20260504022412 72 348 17.4 22.6 0.00 0.00 0.00 65 1011.2
20260504021908 72 324 22.6 23.5 0.00 0.00 0.00 64 1011.1
20260504021406 72 336 20.0 23.5 0.00 0.00 0.00 64 1011.0
20260504020903 72 345 20.9 25.2 0.00 0.00 0.00 63 1010.7
20260504020359 72 344 20.9 26.9 0.00 0.00 0.00 63 1010.7
20260504015855 72 0 20.0 27.8 0.00 0.00 0.00 63 1010.8
20260504015352 72 0 20.9 22.6 0.00 0.00 0.00 63 1010.9
20260504014848 72 358 23.5 27.8 0.00 0.00 0.00 62 1010.9
20260504014344 72 336 24.3 26.9 0.00 0.00 0.00 63 1010.8
20260504013842 72 356 13.9 23.5 0.00 0.00 0.00 64 1011.0
20260504013339 72 347 22.6 23.5 0.00 0.00 0.00 63 1010.9
20260504012836 73 342 21.7 22.6 0.00 0.00 0.00 63 1010.6
20260504012334 73 338 19.1 27.8 0.00 0.00 0.00 63 1010.7
20260504011831 73 340 17.4 20.9 0.00 0.00 0.00 62 1010.8
20260504011327 73 350 20.0 26.1 0.00 0.00 0.00 63 1010.5
20260504010823 73 351 17.4 21.7 0.00 0.00 0.00 64 1010.8
20260504010319 73 19 22.6 27.8 0.00 0.00 0.00 64 1010.5
20260504005816 73 345 22.6 26.1 0.00 0.00 0.00 64 1010.4
20260504005313 73 12 20.9 26.1 0.00 0.00 0.00 64 1010.7
20260504004810 73 353 19.1 26.9 0.00 0.00 0.00 64 1010.8
20260504004308 73 337 21.7 25.2 0.00 0.00 0.00 63 1010.5
20260504003804 73 349 19.1 25.2 0.00 0.00 0.00 63 1010.8
20260504003301 73 349 23.5 27.8 0.00 0.00 0.00 63 1010.8
20260504002757 73 344 24.3 26.9 0.00 0.00 0.00 62 1010.6
20260504002254 73 322 20.0 26.1 0.00 0.00 0.00 62 1010.6
20260504001752 74 350 20.9 28.7 0.00 0.00 0.00 63 1010.7
20260504001249 74 355 20.0 26.1 0.00 0.00 0.00 63 1010.8
20260504000746 74 353 23.5 26.9 0.00 0.00 0.00 62 1010.5
20260504000243 74 342 21.7 26.9 0.00 0.00 0.00 62 1010.6
20260503235741 74 341 20.9 23.5 0.00 0.00 0.00 62 1010.7
20260503235238 74 356 20.0 26.1 0.00 0.00 0.00 61 1010.7
20260503234735 74 7 22.6 28.7 0.00 0.00 0.00 61 1010.4
20260503234233 74 342 22.6 26.1 0.00 0.00 0.00 61 1010.5
20260503233730 74 324 19.1 27.8 0.00 0.00 0.00 61 1010.6
20260503233225 74 348 24.3 27.8 0.00 0.00 0.00 61 1010.6
20260503232723 75 349 19.1 26.1 0.00 0.00 0.00 60 1010.7
20260503232220 75 354 24.3 28.7 0.00 0.00 0.00 59 1010.7
20260503231719 75 351 20.9 26.9 0.00 0.00 0.00 60 1010.8
20260503231215 75 351 19.1 26.9 0.00 0.00 0.00 59 1010.8
20260503230711 75 355 20.0 28.7 0.00 0.00 0.00 60 1010.7
20260503230208 75 358 21.7 28.7 0.00 0.00 0.00 60 1010.5
20260503225705 75 349 25.2 28.7 0.00 0.00 0.00 60 1010.6
20260503225159 75 356 25.2 33.0 0.00 0.00 0.00 61 1010.6
20260503224657 75 350 22.6 28.7 0.00 0.00 0.00 61 1010.5
20260503224155 75 345 21.7 25.2 0.00 0.00 0.00 61 1010.4
20260503223652 75 355 28.7 33.9 0.00 0.00 0.00 62 1010.4
20260503223149 75 352 23.5 26.9 0.00 0.00 0.00 61 1010.5
20260503222646 75 353 26.1 28.7 0.00 0.00 0.00 61 1010.3
20260503222143 76 350 26.9 29.5 0.00 0.00 0.00 60 1010.3
20260503221642 76 356 20.0 27.8 0.00 0.00 0.00 60 1010.4
20260503221139 77 345 25.2 26.1 0.00 0.00 0.00 57 1010.6
20260503220636 77 345 25.2 26.1 0.00 0.00 0.00 57 1010.6
20260503220133 77 345 25.2 26.1 0.00 0.00 0.00 57 1010.4
20260503215630 77 345 25.2 26.1 0.00 0.00 0.00 57 1010.5
20260503215126 77 355 24.3 27.8 0.00 0.00 0.00 56 1010.4
20260503214625 77 355 24.3 27.8 0.00 0.00 0.00 56 1010.5
20260503214120 77 344 18.2 21.7 0.00 0.00 0.00 56 1010.7
20260503213615 77 359 23.5 27.8 0.00 0.00 0.00 55 1010.8
20260503213110 77 351 24.3 26.1 0.00 0.00 0.00 57 1010.5
20260503212608 78 353 26.1 28.7 0.00 0.00 0.00 56 1010.2
20260503212105 78 348 23.5 26.1 0.00 0.00 0.00 56 1010.3
20260503211603 78 357 20.0 21.7 0.00 0.00 0.00 56 1010.5
20260503211058 78 350 24.3 27.8 0.00 0.00 0.00 56 1010.3
20260503210555 79 4 15.6 18.2 0.00 0.00 0.00 56 1010.2
20260503210050 79 347 21.7 23.5 0.00 0.00 0.00 55 1010.4
20260503205547 80 343 20.0 21.7 0.00 0.00 0.00 52 1010.5
20260503205043 80 343 20.0 21.7 0.00 0.00 0.00 52 1010.1
20260503204540 81 336 13.0 13.9 0.00 0.00 0.00 52 1010.4
20260503204037 84 17 10.4 13.0 0.00 0.00 0.00 45 1010.6
20260503203535 83 334 19.1 21.7 0.00 0.00 0.00 44 1010.4
20260503203032 85 207 5.2 6.1 0.00 0.00 0.00 42 1010.4
20260503202530 85 217 6.1 7.8 0.00 0.00 0.00 42 1010.0
20260503202028 85 231 8.7 11.3 0.00 0.00 0.00 42 1009.7
20260503201526 84 219 5.2 7.8 0.00 0.00 0.00 46 1009.9
20260503201022 84 221 6.1 7.8 0.00 0.00 0.00 47 1009.7
20260503200518 84 222 6.1 7.0 0.00 0.00 0.00 48 1009.8
20260503200015 84 222 5.2 6.1 0.00 0.00 0.00 50 1009.9
20260503195512 84 230 5.2 6.1 0.00 0.00 0.00 50 1010.0
20260503195003 84 228 5.2 7.0 0.00 0.00 0.00 49 1010.0
20260503194501 84 226 5.2 7.0 0.00 0.00 0.00 51 1009.8
20260503194000 84 226 6.1 7.0 0.00 0.00 0.00 50 1009.6
20260503193457 84 227 4.3 5.2 0.00 0.00 0.00 50 1009.8
20260503192952 84 216 5.2 7.0 0.00 0.00 0.00 46 1009.6
20260503192449 84 220 6.1 7.8 0.00 0.00 0.00 46 1009.5
20260503191944 83 211 4.3 7.0 0.00 0.00 0.00 49 1009.4
20260503191443 84 204 3.5 6.1 0.00 0.00 0.00 52 1009.4
20260503190938 84 192 3.5 6.1 0.00 0.00 0.00 51 1009.7
20260503190436 85 190 3.5 7.0 0.00 0.00 0.00 49 1009.3
20260503185933 85 228 4.3 6.1 0.00 0.00 0.00 45 1009.2
20260503185429 85 215 7.0 7.8 0.00 0.00 0.00 46 1009.1
20260503184928 85 232 6.1 7.8 0.00 0.00 0.00 43 1009.2
20260503184425 86 231 6.1 7.0 0.00 0.00 0.00 43 1009.0
20260503183922 85 230 7.8 9.6 0.00 0.00 0.00 42 1009.1
20260503183418 85 254 4.3 6.1 0.00 0.00 0.00 47 1008.9
20260503182915 84 234 5.2 6.1 0.00 0.00 0.00 48 1009.0
20260503182414 85 237 4.3 7.8 0.00 0.00 0.00 48 1008.8
20260503181911 84 236 5.2 7.0 0.00 0.00 0.00 47 1009.0
20260503181408 84 242 7.0 7.8 0.00 0.00 0.00 49 1009.0
20260503180904 84 240 4.3 7.0 0.00 0.00 0.00 49 1008.9
20260503180403 85 233 6.1 7.8 0.00 0.00 0.00 48 1008.7
20260503175859 84 216 5.2 7.8 0.00 0.00 0.00 46 1008.7
20260503175357 84 200 3.5 3.5 0.00 0.00 0.00 52 1008.6
20260503174852 84 229 4.3 5.2 0.00 0.00 0.00 50 1008.4
20260503174351 85 217 4.3 6.1 0.00 0.00 0.00 50 1008.4
20260503173850 85 226 6.1 7.0 0.00 0.00 0.00 49 1008.5
20260503173347 85 221 7.0 7.8 0.00 0.00 0.00 47 1008.3
20260503172844 85 237 5.2 7.8 0.00 0.00 0.00 47 1008.3
20260503172342 84 233 7.0 8.7 0.00 0.00 0.00 48 1008.5
20260503171837 85 203 3.5 3.5 0.00 0.00 0.00 53 1008.3
20260503171334 86 227 4.3 7.8 0.00 0.00 0.00 46 1008.3
20260503170832 86 216 3.5 5.2 0.00 0.00 0.00 47 1008.3
20260503170328 86 199 3.5 5.2 0.00 0.00 0.00 46 1008.3
20260503150720 88 213 4.3 5.2 0.00 0.00 0.00 42 1007.1